Theta_e
295 294 294 294 294 293 293 293 293 292 292 291 291 290 290 289 289 288 288 287 287 287 286 286 285 284 283 282 282 281 281 281 280 280 279 279 278 278 277 277 276 276 275 275 275 275 275 275 274 274 274 273 274 274 274 273 273 272 272 271 271 270 270 269 269 268 269 269 269 269 269 269 269 269 269 269 269 269 269 269 269 269 268 268 268
295 295 294 294 294 294 293 293 293 292 292 292 291 291 290 290 290 289 288 288 288 287 287 286 285 285 283 283 282 281 281 281 280 279 279 278 278 278 277 277 276 276 275 275 275 274 274 274 274 274 273 273 273 273 273 273 272 272 271 271 270 270 270 269 269 268 268 268 268 268 268 268 268 268 268 268 268 268 268 268 268 268 268 268 267
295 295 294 294 294 293 293 292 292 292 292 291 291 291 291 290 290 289 289 289 288 287 287 287 286 285 284 283 282 281 281 280 280 279 279 278 278 278 277 277 276 276 275 275 275 274 274 274 273 273 273 273 273 272 273 273 272 272 271 271 270 270 270 269 269 268 268 268 268 268 268 268 268 268 268 268 268 267 267 267 267 267 267 267 267
294 293 293 293 293 292 292 291 291 291 291 291 291 290 290 290 290 289 289 289 288 288 287 287 286 285 284 283 282 281 280 280 280 279 279 279 278 278 277 277 276 276 276 275 275 274 274 274 273 273 273 272 272 272 272 272 272 271 271 271 270 270 269 269 269 268 268 267 267 268 268 267 267 267 267 267 267 267 267 267 267 267 266 266 266
292 292 292 292 291 291 291 290 290 290 290 290 290 290 290 290 289 289 289 288 288 288 287 287 286 285 284 283 282 281 280 280 279 279 279 278 278 278 277 277 276 276 276 275 275 275 274 274 273 273 272 272 272 271 271 272 272 271 271 271 270 270 269 269 268 268 268 267 267 267 267 267 267 267 267 266 266 266 266 266 266 266 266 266 266
291 290 290 290 290 290 290 289 289 289 289 289 289 289 289 289 289 288 288 288 288 287 287 286 286 285 284 283 282 281 281 280 279 279 278 278 278 277 277 277 276 276 276 275 275 275 274 274 273 273 272 272 272 271 271 272 272 271 271 271 270 270 269 268 268 268 267 267 267 267 267 267 267 266 266 266 266 266 266 266 266 265 265 265 265
290 289 289 289 289 289 288 288 288 288 289 289 289 289 288 288 288 288 288 287 287 287 286 286 285 285 284 283 282 281 280 279 279 278 278 278 277 277 277 276 276 276 275 275 275 275 274 274 273 273 272 272 272 272 272 272 272 271 271 271 270 269 269 268 268 267 267 267 266 266 266 266 266 266 266 266 266 265 265 265 265 265 265 265 265
289 288 288 288 288 288 287 287 287 287 287 287 288 287 287 287 287 287 287 286 286 286 285 285 285 284 283 282 281 280 279 279 278 278 277 277 277 276 276 276 276 276 275 275 275 274 274 274 273 273 273 272 272 272 272 272 272 271 271 271 270 269 268 268 268 267 267 266 266 266 266 266 266 265 265 265 265 265 265 265 264 265 265 265 265
287 287 287 286 286 286 286 286 286 286 286 286 286 286 286 286 286 285 285 285 285 285 284 284 284 283 282 281 280 280 279 278 278 278 277 277 277 276 276 276 276 275 275 275 274 274 274 274 273 273 273 272 272 272 273 273 272 272 271 271 270 269 268 268 267 267 266 266 265 265 265 265 265 265 265 265 264 264 265 264 264 264 264 264 264
286 286 285 285 285 284 284 284 284 284 284 284 284 284 284 284 284 284 284 283 283 283 283 283 282 282 281 281 280 279 279 278 278 278 277 277 277 276 276 276 275 275 275 274 274 274 274 273 273 273 273 272 272 272 272 272 272 272 272 271 270 269 268 267 266 266 266 265 265 265 265 264 265 265 265 265 264 264 264 264 264 264 264 263 263
284 284 284 284 283 283 283 283 283 283 282 282 282 282 282 283 282 282 282 282 282 282 282 281 281 281 280 280 279 279 278 278 278 278 277 277 277 276 276 276 275 275 275 274 274 274 273 273 273 273 272 272 272 272 272 271 271 272 271 271 270 270 268 267 266 266 265 265 265 265 264 264 265 265 264 264 264 264 264 264 263 263 263 263 263
283 283 283 282 282 282 282 281 281 281 281 280 280 280 281 281 281 281 281 281 281 281 280 280 280 279 279 279 279 278 278 278 278 278 277 277 277 277 276 275 275 275 274 274 274 273 273 273 273 272 272 272 272 272 271 271 271 271 271 270 270 269 269 268 267 267 266 265 265 265 264 264 264 264 264 264 264 264 263 263 263 263 263 263 263
282 282 282 281 281 280 280 280 280 280 279 279 279 279 279 279 279 279 279 279 279 279 279 279 279 278 278 278 278 277 277 277 277 277 277 277 278 277 277 276 275 275 274 274 274 273 273 272 272 272 272 272 272 271 271 271 271 270 270 269 269 268 268 268 268 267 267 266 265 265 265 265 264 264 265 264 264 263 263 263 263 263 263 263 263
280 280 280 280 279 279 279 279 279 278 278 278 277 277 277 277 277 277 277 277 277 277 277 277 277 277 277 277 277 277 277 277 277 276 277 277 278 278 277 277 276 275 275 274 274 273 273 272 272 272 272 272 272 271 271 271 270 270 269 268 268 268 267 267 268 268 267 267 266 265 266 265 265 265 265 265 264 263 263 263 263 263 263 263 263
279 279 279 278 278 278 278 278 278 277 277 277 276 276 276 276 276 276 276 276 276 276 276 276 276 276 276 276 275 275 275 276 275 275 276 277 277 277 277 277 276 276 275 274 273 273 273 273 272 272 272 272 272 272 271 271 270 269 268 268 267 267 267 267 267 267 267 267 267 266 266 266 266 265 265 265 265 264 264 264 264 263 263 263 263
278 278 278 278 277 277 277 277 276 276 276 276 276 275 275 275 275 275 275 275 275 275 275 275 275 275 275 275 275 275 275 275 275 275 275 276 276 277 277 276 275 274 274 273 273 272 272 272 272 272 272 272 272 272 271 271 269 268 268 267 267 267 267 267 267 267 267 267 267 267 266 266 266 266 266 266 265 265 265 264 264 263 263 263 262
277 276 276 276 276 276 276 275 275 275 275 275 275 275 274 274 274 274 274 274 274 274 274 274 274 274 274 274 274 274 274 274 274 274 274 275 275 275 275 274 273 272 272 272 272 272 272 272 271 271 271 271 271 271 271 270 269 268 267 267 267 267 266 267 267 267 267 268 267 267 267 267 267 267 267 267 267 266 265 263 263 263 263 262 262
275 275 275 274 274 274 274 274 274 274 274 274 274 273 273 273 273 273 273 273 273 273 273 273 273 273 272 272 272 272 272 272 272 272 273 273 274 273 273 272 271 271 271 271 271 271 271 271 271 271 271 271 271 270 270 270 269 268 268 267 267 267 266 267 267 267 267 267 268 268 268 268 268 269 269 269 268 268 266 264 264 264 263 263 263
273 273 273 273 273 273 273 273 273 273 273 273 272 272 272 272 272 272 272 272 272 272 272 272 272 271 271 271 271 271 271 271 271 271 271 271 271 271 271 271 270 270 270 270 270 270 270 270 270 270 270 270 270 270 270 270 270 269 269 268 268 267 267 267 267 267 266 266 267 267 267 267 268 268 268 268 268 268 268 266 266 265 264 264 264
272 272 272 272 272 272 272 272 272 272 272 272 271 271 271 271 271 271 271 271 271 271 270 270 270 270 270 270 269 269 269 270 270 269 269 270 270 270 270 270 269 269 269 269 269 269 269 269 269 269 269 270 270 270 270 270 270 270 269 269 269 268 268 268 267 267 267 266 266 266 266 266 267 267 267 267 267 267 267 267 266 265 265 264 264
272 272 272 272 272 271 271 271 271 271 271 270 270 270 270 270 270 270 270 270 270 269 269 269 269 269 269 269 269 268 268 268 268 268 268 268 269 269 269 269 269 269 269 269 269 269 269 269 269 269 269 269 269 269 269 269 269 269 269 269 269 269 269 268 268 268 267 267 266 266 266 266 266 266 266 266 266 267 267 267 266 265 265 265 265
271 271 271 271 271 271 271 270 270 270 270 269 269 269 269 269 269 269 269 269 269 269 268 268 268 268 268 268 268 268 267 267 267 267 267 267 268 268 268 269 269 269 269 268 268 268 268 268 268 268 268 268 269 269 269 269 269 269 269 269 269 269 269 269 269 268 268 268 267 267 266 265 265 265 265 265 266 266 267 267 266 266 265 265 265
270 270 270 270 270 270 270 269 269 268 268 268 268 268 268 268 268 268 268 268 268 268 268 267 267 267 267 267 267 267 266 266 266 266 265 265 266 267 267 268 268 268 269 268 268 268 268 268 268 267 267 268 268 268 268 269 269 269 269 269 270 270 269 269 269 268 268 268 267 267 267 266 265 265 265 265 265 265 266 266 266 266 265 265 265
269 269 269 269 269 268 268 268 267 267 267 267 267 267 267 267 267 267 267 267 267 267 267 266 266 266 266 266 266 266 265 265 265 265 264 264 265 265 266 267 268 268 268 268 268 268 268 268 268 268 268 268 268 268 268 269 269 269 269 269 269 268 268 267 267 267 266 266 266 266 266 266 266 265 265 265 265 265 265 265 266 266 265 265 265
268 268 268 268 267 267 267 267 267 267 266 266 266 266 266 266 266 266 266 265 265 265 265 265 265 265 264 264 265 265 264 264 264 264 264 264 264 264 265 266 266 267 267 267 267 267 267 267 268 268 268 268 268 268 268 268 268 267 267 267 267 266 266 265 265 265 265 265 265 265 265 265 265 265 265 265 265 265 265 264 265 265 265 265 264
267 267 267 266 266 266 266 266 266 266 266 266 265 265 265 265 265 265 265 265 265 264 264 264 264 264 264 264 264 264 264 264 264 263 264 263 263 264 264 264 264 264 264 265 265 265 265 266 266 266 266 266 266 266 266 266 265 265 265 265 265 265 264 264 264 264 264 264 264 264 264 264 264 265 265 265 265 265 265 264 264 264 264 264 264
266 265 265 266 266 266 266 266 266 266 266 265 265 265 265 265 264 264 264 264 264 264 264 264 264 263 263 263 263 263 263 264 264 264 264 264 264 264 264 264 264 263 263 263 264 264 264 264 264 264 264 264 265 265 264 264 264 264 264 264 264 264 264 263 263 263 263 263 263 263 263 263 263 263 263 264 264 264 265 264 264 264 264 264 263
264 264 264 265 265 265 265 265 265 265 265 265 264 264 264 264 264 264 264 264 264 264 264 263 263 263 263 263 263 264 264 265 265 265 265 265 265 265 265 265 265 264 264 264 264 264 264 264 264 264 264 264 264 264 264 264 264 264 264 264 264 264 263 263 263 262 262 262 262 262 262 262 262 262 262 263 263 263 264 264 264 263 263 263 262
264 263 263 263 264 264 264 264 264 264 264 263 263 263 263 263 263 263 263 263 263 264 264 263 263 264 264 264 264 264 264 265 265 265 266 266 266 266 266 266 266 266 265 265 265 265 264 264 264 264 264 263 263 263 264 264 264 264 264 264 264 264 263 263 262 262 262 262 261 261 261 261 262 262 262 262 262 262 262 263 263 263 263 263 262
263 263 263 263 263 263 263 263 263 262 262 262 262 263 263 263 262 263 263 263 263 263 264 264 265 265 265 265 265 264 265 265 265 265 266 267 267 266 266 266 266 265 265 265 265 264 263 263 263 263 263 262 262 262 262 262 262 263 263 264 263 263 263 262 262 262 262 261 261 261 261 261 261 261 261 261 261 261 262 262 262 263 263 262 262
262 262 262 262 262 262 262 262 262 262 262 262 261 262 262 262 263 263 263 263 263 263 264 265 265 266 266 266 266 265 265 265 265 265 266 266 266 265 264 264 265 265 265 266 265 264 263 263 262 262 262 262 261 261 261 261 261 261 262 262 262 262 262 261 261 261 261 261 261 261 261 261 261 261 261 261 261 261 261 261 262 262 262 262 262
261 261 262 261 261 261 261 261 261 261 261 261 261 261 261 261 262 262 262 262 262 262 263 264 265 265 265 265 264 264 264 263 263 264 264 264 264 263 263 264 265 265 265 265 264 264 263 262 262 261 261 261 261 261 261 261 260 260 260 260 260 260 260 260 260 260 260 260 260 260 260 260 260 260 260 261 261 261 261 261 261 261 262 262 262
261 261 261 261 261 261 261 261 260 260 260 260 260 260 260 259 259 260 261 262 262 262 262 262 263 263 262 262 262 262 262 262 262 262 262 262 262 263 263 264 264 263 263 262 261 260 260 260 259 259 259 259 259 259 259 259 259 259 258 258 258 258 258 258 258 258 258 258 258 258 258 258 259 259 259 260 260 260 261 261 261 261 261 261 261
260 261 261 261 260 260 260 260 260 260 260 260 259 259 259 259 258 258 259 260 261 261 261 261 261 260 260 260 260 260 260 260 260 260 260 261 262 262 262 263 262 262 261 260 259 258 258 257 257 257 257 257 257 257 257 257 257 257 257 256 256 256 256 256 256 256 256 256 256 256 256 256 257 257 257 258 258 259 259 260 260 261 261 261 261
261 261 261 260 260 260 260 259 259 259 259 259 259 259 258 258 258 257 257 257 258 258 259 260 260 259 259 258 258 258 258 258 258 258 260 262 262 261 260 260 260 259 259 258 257 256 256 256 256 256 256 256 256 256 255 255 255 255 255 255 255 255 255 255 255 255 255 255 255 255 255 255 255 255 256 256 256 257 257 258 259 259 260 260 261
260 260 261 260 260 260 260 259 259 259 259 259 259 258 258 258 258 257 257 257 257 257 258 258 259 259 258 258 258 257 257 257 258 258 260 261 260 258 258 257 257 257 257 257 256 255 255 255 255 255 255 255 255 255 254 254 254 254 254 254 254 254 254 254 254 254 254 254 254 254 253 253 254 254 254 254 255 255 256 256 256 257 257 258 259
260 260 260 260 260 260 260 260 259 259 259 258 258 258 258 258 257 257 257 257 257 257 257 257 257 258 258 258 257 257 257 256 257 258 258 258 257 257 256 256 256 256 256 256 255 255 254 254 254 254 254 254 254 254 254 253 253 253 253 253 253 253 253 253 253 253 253 253 253 253 253 253 253 253 253 253 253 254 254 254 254 254 255 255 256
260 260 260 260 259 259 259 259 259 259 258 258 258 257 257 257 257 257 257 257 257 257 257 257 257 256 257 257 257 257 256 256 256 256 256 256 256 256 256 256 255 255 255 255 254 254 254 254 254 253 253 253 253 253 253 253 253 253 253 252 252 252 252 252 253 252 252 252 252 252 252 252 252 252 252 252 252 252 252 252 252 253 253 253 254
260 260 259 259 259 258 258 258 258 258 258 258 257 257 257 257 257 257 257 257 256 256 256 256 256 256 256 256 256 256 256 256 256 256 256 255 255 255 255 255 254 254 254 254 254 253 253 253 253 253 253 253 252 252 252 252 252 252 252 252 252 252 252 252 252 252 252 252 252 252 252 251 251 252 252 252 252 252 252 252 252 252 252 252 252
259 259 259 258 258 258 258 258 258 257 257 257 257 257 257 257 257 257 256 256 256 256 256 256 256 256 256 256 256 256 256 255 255 255 255 255 255 254 254 254 254 253 253 253 253 253 253 253 252 252 252 252 252 252 252 252 251 251 251 251 251 251 251 251 251 251 251 251 251 251 251 251 251 251 251 251 251 251 251 251 251 251 251 251 251
259 259 258 258 258 258 258 258 257 257 256 256 256 256 257 257 256 256 256 256 256 256 255 255 255 255 255 255 255 255 255 255 255 255 254 254 254 254 253 253 253 253 253 253 252 252 252 252 252 252 252 252 251 251 251 251 251 251 251 251 251 251 251 251 251 251 251 251 251 251 251 251 251 251 251 251 251 251 251 251 251 251 250 251 251
259 259 258 258 258 257 257 257 257 256 256 256 256 256 256 256 256 256 256 255 255 255 255 255 255 255 255 254 254 255 255 254 254 254 253 253 253 253 253 253 253 253 252 252 252 252 252 252 252 251 251 251 251 251 251 251 250 250 250 250 250 250 250 250 250 250 250 250 250 250 250 250 251 251 251 251 251 250 250 250 250 250 250 250 250
259 258 258 258 258 257 257 257 256 256 256 256 256 256 256 256 255 255 255 255 255 254 254 254 254 254 254 254 254 254 254 253 253 253 253 253 253 253 253 252 252 252 252 252 252 252 251 251 251 251 251 250 250 250 250 250 250 250 250 250 250 250 250 250 250 250 250 250 250 250 250 250 250 250 250 250 250 250 250 250 250 250 249 249 249
259 258 258 258 258 257 257 256 256 256 256 256 256 256 255 255 255 254 254 254 254 254 253 253 253 253 253 253 253 253 253 253 253 252 252 252 252 252 252 252 252 252 252 252 251 251 251 251 251 250 250 250 250 250 249 249 249 249 249 249 249 249 249 249 249 249 249 250 250 250 250 250 250 250 250 250 250 250 250 250 249 249 249 249 249
258 258 258 258 257 257 257 256 256 255 255 255 255 255 255 254 254 254 253 253 253 253 252 252 252 252 252 252 252 252 252 252 252 252 252 252 252 252 252 252 252 251 251 251 251 251 250 250 250 250 250 249 249 249 249 249 249 248 248 249 249 249 249 249 249 249 249 249 249 249 250 250 250 250 250 250 250 249 249 249 249 249 248 248 248
258 257 257 257 257 257 256 256 255 255 255 255 255 254 254 254 253 253 253 253 252 252 252 252 252 252 252 252 252 252 252 252 252 252 252 252 252 252 252 251 251 251 251 251 250 250 250 250 249 249 249 249 249 248 248 248 248 248 248 248 248 248 248 249 249 249 249 249 249 249 249 249 249 249 249 249 249 249 249 249 248 248 248 248 248
257 257 257 257 256 256 256 255 255 254 254 254 254 253 253 253 253 253 252 252 252 252 251 251 251 251 251 251 251 251 251 251 251 251 251 251 251 251 251 251 251 251 250 250 250 249 249 249 249 249 248 248 248 248 248 248 248 248 248 248 248 248 248 249 249 249 249 249 249 249 249 249 249 249 249 249 249 249 248 248 248 248 248 248 248
257 257 257 257 256 256 255 255 254 254 254 254 253 253 253 253 252 252 252 252 251 251 251 251 251 251 251 251 251 251 251 251 251 251 251 251 251 251 251 250 250 250 250 250 249 249 249 249 248 248 248 247 247 247 247 248 248 248 248 248 248 248 248 248 248 248 248 248 248 248 248 248 248 248 248 248 248 248 248 248 247 247 247 247 247
257 257 257 257 256 256 255 254 254 254 253 253 253 252 252 252 252 252 251 251 251 251 250 250 250 250 250 250 251 250 250 250 251 251 251 251 251 250 250 250 250 250 249 249 249 249 248 248 248 247 247 247 247 247 247 247 248 248 248 248 248 248 248 248 248 248 248 248 248 248 248 248 248 248 248 248 248 247 247 247 247 247 247 247 247
257 257 257 257 256 255 254 254 253 253 253 253 252 252 252 252 251 251 251 251 250 250 250 250 250 250 250 250 250 250 250 250 250 250 250 250 250 250 250 250 249 249 249 249 248 248 248 248 247 247 247 247 247 247 247 247 247 247 247 247 247 247 247 247 247 247 247 247 247 247 247 247 247 247 247 247 247 247 247 247 247 246 246 246 246
257 257 257 256 255 255 254 253 253 253 253 252 252 252 252 251 251 251 251 250 250 250 250 250 250 250 250 250 250 250 250 250 250 250 250 250 250 250 249 249 249 249 248 248 248 248 247 247 247 247 247 247 247 247 247 247 247 247 247 247 247 247 247 247 247 247 247 247 247 247 247 247 247 247 247 247 247 247 247 246 246 246 246 246 246
Wind_Speed
23 24 25 26 27 28 29 29 30 31 33 35 37 39 40 40 41 41 40 39 38 39 39 39 40 41 42 43 44 45 45 45 45 44 43 43 42 41 40 39 40 40 39 39 39 39 39 39 39 37 35 34 34 34 33 31 30 29 28 28 28 28 27 24 17 16 18 17 16 17 18 18 20 21 22 24 25 25 25 26 27 28 29 29 29
22 23 24 24 25 25 24 24 25 27 30 32 34 36 37 38 39 39 38 38 38 38 39 39 39 40 41 42 43 44 45 45 44 43 43 43 41 40 39 39 40 39 38 38 38 38 38 38 37 34 33 33 34 34 34 32 30 30 29 29 29 29 28 27 23 18 18 18 18 19 20 21 23 24 24 27 27 27 28 29 29 30 30 30 30
21 22 23 23 23 21 21 21 22 25 27 29 31 32 34 35 36 36 37 37 37 37 38 38 38 39 39 41 41 42 43 43 43 43 43 43 42 41 40 39 40 39 38 38 38 37 36 35 35 33 32 33 34 34 34 33 31 31 31 31 30 30 29 29 27 23 20 20 18 19 21 21 23 23 23 25 26 26 28 30 30 30 31 30 31
21 21 21 21 19 18 19 20 22 24 25 27 28 28 29 30 32 33 34 35 35 35 35 35 36 37 37 39 40 41 41 42 42 42 43 42 42 41 40 39 40 40 39 39 37 35 35 35 35 34 33 34 34 33 33 33 32 32 31 31 30 30 30 30 30 27 24 21 19 19 21 21 22 23 22 23 24 25 28 30 31 31 31 31 31
15 14 14 14 14 15 17 19 20 21 22 23 23 23 24 25 27 28 29 30 31 31 31 31 32 34 36 37 38 39 40 41 41 41 42 41 41 40 39 39 39 39 38 38 36 35 36 36 36 34 34 34 34 33 33 33 33 32 32 31 30 30 30 29 29 29 26 24 21 20 20 21 23 23 22 22 24 26 28 30 31 31 31 31 31
6 6 8 10 12 14 15 15 16 17 17 17 17 17 18 20 22 23 24 25 26 26 27 28 29 32 34 35 36 38 38 39 40 40 40 39 39 38 37 37 37 37 37 36 35 35 36 36 36 34 35 35 35 34 33 33 33 33 33 32 32 31 30 29 28 28 27 27 24 21 21 22 23 23 22 23 24 26 27 28 29 29 29 30 30
6 8 9 10 11 11 11 11 11 12 11 12 12 12 13 15 17 18 19 20 21 22 23 25 26 28 31 32 34 35 35 36 36 37 37 36 36 36 36 35 35 35 35 35 34 35 35 35 35 35 36 37 36 35 34 34 34 35 35 34 33 32 31 30 29 28 27 26 25 23 23 23 24 24 23 22 24 26 25 25 27 27 26 27 29
9 10 10 10 9 8 8 7 7 7 7 8 8 8 9 11 12 13 14 16 17 19 20 22 23 25 26 28 29 30 31 32 33 33 33 33 34 34 34 34 34 33 33 33 33 33 34 34 35 35 36 37 36 35 35 36 35 35 36 35 34 33 33 31 29 28 27 26 25 23 23 23 23 24 24 22 23 25 25 23 25 26 25 27 28
9 9 8 7 6 5 5 5 4 5 5 5 5 6 6 7 8 10 11 13 14 15 17 18 20 21 23 24 25 26 28 29 30 31 31 32 32 33 33 33 32 32 32 31 31 32 32 33 33 35 35 35 35 35 36 36 36 36 36 36 35 35 33 31 29 28 26 25 24 23 21 22 23 23 25 25 25 27 26 23 24 25 26 28 31
8 7 5 3 3 3 3 4 4 4 5 4 4 4 5 6 7 8 9 10 11 12 14 15 17 18 20 21 22 24 25 26 27 28 29 31 32 32 32 31 31 31 30 29 29 30 31 32 33 34 33 33 34 35 36 35 36 36 36 36 36 35 33 31 29 28 27 24 24 23 20 21 24 25 27 29 27 26 25 23 24 25 25 26 28
5 4 2 2 2 3 4 4 5 5 6 6 6 6 6 7 7 7 8 9 10 11 12 13 15 16 18 19 20 22 23 24 24 25 26 28 29 30 30 30 30 30 29 29 28 29 30 31 32 32 32 32 33 34 35 35 36 37 37 38 38 37 35 32 31 30 28 26 26 25 22 24 28 29 29 30 28 25 24 24 24 24 22 19 19
2 2 2 2 3 4 4 5 5 6 7 8 9 9 9 8 8 8 8 9 9 10 10 11 12 14 15 17 18 19 20 21 21 22 23 23 24 27 28 29 28 28 29 29 29 29 29 30 31 32 32 33 34 34 34 36 36 37 38 39 39 38 37 35 33 32 31 29 28 27 27 28 31 30 29 30 28 25 24 25 25 25 23 20 18
2 2 1 1 2 3 3 5 6 7 8 9 9 9 9 9 8 8 8 8 9 9 9 10 10 12 13 14 15 17 17 18 19 20 20 20 20 22 25 27 28 28 29 29 29 29 29 30 30 32 33 33 34 34 34 35 36 37 39 39 39 38 37 35 33 32 33 32 32 32 33 32 32 33 33 31 28 25 24 26 28 27 25 24 25
2 1 0 0 2 3 5 6 7 7 8 8 8 8 8 8 8 8 8 8 9 9 9 9 10 10 11 12 13 15 15 16 17 17 16 16 17 20 23 25 27 28 29 30 30 30 30 31 32 32 33 33 33 33 34 34 36 36 37 36 36 36 36 34 33 32 33 33 34 36 37 35 35 37 36 33 31 30 28 29 30 30 29 30 32
2 2 2 3 5 6 7 7 7 7 8 8 8 8 8 8 8 9 9 8 9 9 9 9 9 10 11 11 12 13 14 14 15 14 14 14 16 18 21 22 24 27 29 30 31 31 32 32 33 33 33 33 33 33 33 35 36 36 35 34 34 34 34 35 35 35 36 36 37 38 38 36 37 38 38 37 37 36 35 35 35 32 31 31 31
4 3 4 5 6 6 7 7 7 7 8 8 8 9 9 9 9 9 9 9 9 9 9 9 9 10 10 11 12 13 13 14 14 13 13 14 16 17 18 16 16 21 25 27 28 30 31 32 32 32 32 32 31 31 32 34 35 35 34 33 33 34 35 35 34 34 36 39 40 41 40 38 38 38 40 40 40 40 39 37 34 31 29 26 24
5 4 4 4 5 6 7 7 6 6 7 8 8 9 9 9 9 9 9 10 10 10 10 10 10 10 10 11 11 12 13 13 13 12 12 13 14 16 16 13 11 13 17 20 23 25 27 29 30 31 31 31 30 31 32 32 33 34 33 33 34 34 35 36 36 35 36 37 39 40 39 38 38 38 40 39 40 41 38 33 31 30 27 19 17
7 6 5 5 6 7 7 7 6 6 7 7 8 8 8 8 9 9 9 10 10 10 10 10 10 10 10 11 11 11 12 12 12 12 11 11 13 16 17 17 16 14 14 15 18 21 23 25 27 29 31 31 31 31 30 29 29 30 30 31 32 33 34 35 37 38 38 37 37 37 36 36 36 37 37 37 38 37 35 34 34 32 27 19 18
7 6 6 6 7 7 7 7 6 6 6 7 7 8 8 8 8 8 9 9 10 10 10 11 11 10 10 10 10 10 11 11 11 12 12 12 14 16 18 20 21 20 19 18 18 19 21 22 24 26 28 29 30 31 31 31 32 32 31 30 30 32 34 35 36 38 38 38 39 39 39 39 38 37 37 36 36 34 33 32 32 31 28 25 23
6 6 6 6 7 7 7 7 7 6 7 7 7 7 8 8 8 8 9 9 10 10 10 10 10 10 9 10 10 11 12 13 13 14 15 15 15 17 18 20 21 22 22 21 20 20 21 22 24 25 25 27 29 31 32 33 34 34 33 31 30 31 33 35 36 38 38 39 39 40 41 41 40 40 40 39 38 37 37 35 30 28 28 26 24
6 6 6 6 6 7 7 8 8 8 7 8 8 7 7 8 8 8 9 9 9 9 10 10 10 11 11 11 12 13 14 15 16 17 17 16 16 17 18 19 20 21 21 21 20 20 21 22 24 25 26 27 29 31 33 34 34 34 33 33 33 34 34 34 35 36 36 37 37 38 39 39 39 40 40 41 40 40 40 40 37 33 30 28 25
8 8 7 7 7 8 8 8 9 9 9 9 8 8 8 8 8 8 8 9 9 9 10 10 10 12 13 13 15 15 16 16 17 19 19 18 17 18 19 19 19 20 20 20 21 22 23 24 25 26 27 28 29 31 33 33 34 34 32 31 33 34 35 34 34 33 33 34 35 34 34 34 35 36 37 39 41 41 41 42 42 40 37 35 33
9 9 9 9 9 9 8 8 9 9 9 9 8 7 7 7 8 8 8 9 9 10 11 11 11 13 15 16 17 17 17 17 18 19 20 19 18 18 19 19 19 20 20 20 20 22 25 27 28 27 28 28 28 30 31 32 33 34 32 31 30 29 28 26 24 22 23 24 25 26 27 28 29 31 33 35 38 40 40 41 41 41 41 39 38
10 10 10 10 9 8 8 8 9 9 8 8 7 6 6 6 7 7 8 8 9 11 12 12 13 14 16 18 19 18 17 17 17 17 18 18 17 18 18 19 18 19 20 20 19 18 19 21 25 26 27 28 29 30 30 30 30 30 28 26 24 22 19 18 16 16 15 14 15 17 18 20 22 25 28 31 33 35 37 38 38 39 40 40 40
12 11 11 10 9 8 8 8 8 7 7 7 6 6 7 7 7 7 8 8 9 11 13 13 14 15 16 18 20 20 19 18 18 17 17 17 17 17 18 18 17 18 19 19 19 17 16 16 19 21 23 24 25 26 25 25 25 26 26 25 24 23 22 21 20 18 17 17 17 18 19 20 22 23 25 27 29 31 32 33 34 35 37 39 39
12 11 11 9 8 7 7 7 6 6 6 6 7 7 7 8 9 9 9 9 10 11 13 14 14 15 15 17 20 21 20 20 19 18 16 16 17 17 17 18 17 18 19 20 21 22 21 21 23 24 24 24 25 26 27 26 26 27 27 27 27 27 26 25 23 22 22 22 22 23 24 25 25 26 26 26 27 29 30 30 31 33 34 36 37
11 10 9 8 8 7 7 7 6 6 7 7 8 9 9 9 10 11 10 11 11 12 13 14 15 15 16 18 19 20 20 19 19 18 17 17 17 16 16 17 17 18 19 20 21 22 22 22 23 24 24 25 25 26 27 28 28 28 28 28 28 28 27 27 25 24 24 24 25 26 27 27 27 26 26 25 27 28 29 30 30 31 32 33 34
10 9 8 8 8 7 7 8 8 9 9 10 11 11 10 10 11 11 11 11 12 13 14 15 15 15 16 18 19 19 20 20 20 20 19 19 18 17 17 17 18 18 19 20 20 20 21 21 22 23 24 25 26 26 27 28 29 30 30 29 29 29 28 27 26 25 25 25 25 26 26 26 26 26 26 27 27 27 27 28 29 30 29 29 28
9 9 9 9 9 9 9 9 10 11 12 12 12 12 11 10 11 12 12 10 11 13 14 15 16 16 18 19 20 20 21 21 21 20 20 20 21 21 21 22 22 23 23 22 23 24 24 24 25 26 26 27 27 27 28 29 30 30 31 30 30 30 29 27 26 26 26 26 25 25 25 25 25 26 25 26 27 27 27 27 27 28 27 26 26
10 10 10 10 10 10 11 11 11 11 12 13 14 14 13 11 10 11 12 12 12 12 13 15 17 18 19 20 19 18 19 18 18 18 19 20 19 18 16 16 18 20 20 19 21 24 24 23 24 25 26 26 25 25 27 27 27 28 29 30 30 30 29 28 27 27 27 26 25 25 25 24 24 24 24 25 25 26 26 27 27 26 25 24 24
12 12 12 12 12 12 12 12 11 11 11 12 13 14 16 15 13 10 10 11 11 11 12 14 15 16 16 17 15 14 14 14 15 17 18 19 18 15 12 12 14 17 17 18 19 20 20 19 20 21 22 23 23 24 25 25 25 25 26 27 27 27 27 27 26 25 25 24 24 24 24 24 25 25 24 24 24 24 25 25 26 26 26 24 23
13 13 13 13 13 13 13 12 12 11 11 11 12 13 16 18 19 17 13 10 11 12 13 14 14 13 13 14 14 14 14 14 15 16 17 18 20 20 19 18 18 17 16 14 13 10 9 9 10 10 11 12 13 15 16 16 16 16 16 17 17 16 16 15 15 15 15 16 16 17 18 19 21 22 24 25 25 25 24 24 24 24 25 25 25
13 13 14 14 14 14 13 12 12 12 12 13 13 14 14 15 18 21 21 19 16 14 13 12 12 12 13 14 14 15 15 15 15 15 16 17 20 21 19 16 12 10 9 8 7 8 8 9 9 9 9 9 9 9 10 10 10 10 9 9 9 9 10 10 11 11 11 11 12 13 13 14 15 15 16 18 20 22 23 24 25 25 23 23 23
13 13 13 14 14 14 12 12 12 13 13 13 14 15 15 14 14 16 20 22 22 20 18 15 14 15 16 17 17 16 16 15 15 15 16 17 16 13 10 8 7 8 9 9 9 11 11 11 11 11 11 10 10 10 10 10 10 10 11 11 11 11 13 13 14 14 13 13 13 13 13 14 14 14 14 15 15 16 16 18 20 22 23 23 22
13 13 13 12 13 13 12 12 12 13 14 14 14 15 16 16 14 14 15 16 18 21 22 22 20 18 19 19 18 16 15 15 15 16 16 15 13 10 9 10 11 12 13 13 12 11 11 11 11 11 10 10 10 10 9 9 9 10 10 11 12 12 13 14 15 15 15 14 13 12 12 12 13 13 14 14 15 15 15 15 15 16 17 20 22
15 14 13 12 12 12 12 12 13 14 14 15 15 15 15 15 15 14 14 14 16 18 21 23 23 22 21 19 17 16 15 15 16 16 16 14 13 13 13 12 12 13 14 14 13 11 10 10 10 10 10 9 9 9 9 9 9 9 9 10 10 11 11 12 13 13 12 12 12 12 13 13 13 13 13 13 13 13 13 13 14 14 15 15 15
16 15 13 12 12 12 13 13 13 14 14 14 14 14 15 14 14 14 15 15 16 17 19 21 21 22 22 21 19 18 18 17 16 15 14 13 13 13 12 11 10 11 12 13 13 12 12 11 10 9 9 8 8 8 8 8 9 9 10 10 10 10 10 10 10 11 11 12 12 12 12 12 12 12 12 12 11 10 10 10 10 11 12 13 13
15 13 12 12 13 13 14 14 14 14 14 14 13 13 14 14 15 15 15 16 16 17 18 19 19 19 20 21 21 20 20 18 16 15 14 13 12 11 10 10 9 9 10 10 11 12 12 12 10 8 7 7 7 7 8 8 8 9 9 9 10 10 10 10 10 11 12 12 12 11 10 10 10 10 11 11 11 11 11 11 11 11 11 10 10
14 12 11 12 13 14 14 14 15 15 15 14 13 13 13 14 15 15 16 16 17 17 18 18 17 17 19 20 21 20 18 17 16 15 13 12 12 11 10 9 9 9 9 9 10 10 11 11 10 9 8 8 7 7 7 7 7 8 8 9 9 10 10 10 11 11 11 11 11 11 10 10 10 10 10 11 11 10 10 10 10 9 9 10 9
13 12 12 13 14 15 15 15 15 15 14 14 14 14 14 15 16 16 16 17 17 17 17 17 17 18 19 20 19 18 16 15 13 12 12 13 14 13 11 10 9 9 8 8 8 8 8 8 8 8 8 7 6 7 7 7 8 8 8 9 9 9 9 9 10 10 10 10 11 10 10 11 11 11 12 12 10 8 7 7 8 7 7 8 8
12 12 13 14 15 16 17 16 16 15 14 14 14 14 15 15 16 16 16 16 17 17 17 17 17 18 19 18 17 16 15 14 13 12 13 14 14 13 12 10 9 7 7 7 7 7 7 7 7 7 7 7 7 8 8 8 8 8 7 7 7 8 8 8 8 8 9 9 10 10 11 11 11 11 11 10 8 6 6 6 6 6 7 7 8
12 13 14 16 17 17 18 18 17 15 14 14 13 14 15 15 16 16 16 16 16 17 17 17 18 18 18 17 15 14 13 13 13 13 13 12 12 11 10 9 8 7 6 7 7 7 6 6 6 6 7 8 8 8 8 8 8 7 7 7 7 7 8 8 9 9 10 11 12 12 12 12 11 11 10 9 7 7 7 7 6 6 7 8 8
12 13 15 17 18 18 18 18 17 15 14 14 14 14 14 15 15 15 15 16 16 16 17 17 18 18 17 16 14 13 12 12 12 12 11 10 10 9 8 7 6 6 6 6 6 5 5 6 6 7 7 7 8 8 7 7 7 7 7 8 8 8 8 9 9 10 11 12 12 13 12 11 11 10 10 10 9 8 8 7 7 8 8 9 9
12 14 17 19 20 19 18 16 15 14 13 14 14 15 14 14 15 15 15 15 15 15 16 16 17 17 17 15 14 13 12 12 11 11 10 10 9 8 7 6 6 6 6 5 5 5 6 7 7 7 7 7 7 8 8 8 8 8 9 9 10 10 10 10 11 11 11 12 12 12 11 10 9 9 10 10 9 8 8 8 8 8 9 9 9
13 16 19 20 20 19 17 15 13 13 13 14 15 15 14 14 15 14 14 15 15 15 15 15 16 16 16 15 14 13 12 11 10 10 9 9 8 7 6 5 5 5 5 5 6 6 7 7 7 8 8 9 10 10 11 11 12 12 12 11 11 11 11 12 11 11 11 10 10 10 9 9 8 9 10 10 10 9 8 7 7 8 8 10 11
15 17 19 20 19 17 16 14 12 13 13 13 15 15 15 14 14 14 14 14 15 15 15 15 15 15 14 13 12 11 11 10 10 9 8 8 7 6 5 5 5 5 5 5 6 6 6 7 8 9 10 11 12 12 12 13 13 12 12 12 12 12 12 11 9 9 8 8 8 8 7 7 8 9 10 10 9 8 7 7 7 8 9 10 11
17 18 19 18 17 16 14 13 13 13 14 14 15 15 15 15 14 14 14 15 15 15 15 15 14 14 13 12 11 10 10 9 8 8 8 7 6 5 5 5 5 5 5 5 6 6 7 8 9 11 11 11 10 10 10 9 9 9 9 9 9 10 9 8 7 6 7 7 8 8 7 8 8 8 9 9 8 7 8 8 9 9 10 11 12
18 19 18 16 15 14 14 13 13 14 15 15 15 15 15 14 14 14 14 15 15 15 15 14 13 13 12 11 10 10 9 9 8 8 7 7 5 4 4 4 4 5 6 6 6 7 8 9 10 10 10 8 8 8 8 8 7 7 6 5 5 5 6 6 6 7 7 7 7 7 7 7 7 7 7 7 7 7 8 8 9 10 10 10 11
18 18 17 16 15 13 13 13 14 15 15 15 15 15 15 14 15 15 14 15 15 15 14 14 13 12 11 11 10 10 9 8 8 7 6 4 4 4 4 5 5 5 6 6 7 8 9 10 10 9 8 7 7 7 7 7 6 6 5 4 4 4 5 5 6 7 7 7 7 7 7 7 7 7 7 7 7 7 8 8 9 9 9 9 10
17 17 16 16 14 13 13 13 14 15 15 15 15 15 15 15 15 15 15 15 15 14 13 13 12 12 11 10 10 10 9 8 7 5 4 4 4 5 5 5 6 6 6 7 7 8 9 9 8 7 7 7 7 7 6 6 5 4 4 4 4 5 5 6 7 7 8 8 8 8 8 9 9 8 9 8 8 8 8 9 9 9 9 10 10
16 16 16 15 14 13 13 14 14 15 15 15 15 15 15 16 16 15 15 15 15 14 13 13 12 11 10 10 9 9 8 7 6 5 5 5 6 6 5 6 6 6 7 7 8 9 8 8 7 7 7 7 6 6 6 5 4 4 4 5 5 6 7 7 8 8 8 8 8 8 8 9 10 9 9 9 9 9 9 9 9 10 10 10 11
Wind_Direction
246 247 248 248 247 248 251 253 255 257 257 255 253 253 253 252 251 251 250 248 246 243 242 240 237 235 231 229 228 227 227 227 226 225 224 225 225 225 225 224 224 225 225 226 225 225 226 227 228 228 226 225 226 226 226 227 228 229 231 232 232 233 232 227 233 252 253 249 246 241 238 241 245 248 253 257 259 261 263 264 265 268 270 271 272
250 251 250 248 249 251 254 257 259 260 260 258 257 257 257 256 255 253 251 249 248 245 243 242 240 236 233 230 228 227 227 226 225 223 223 224 224 224 223 222 223 224 224 225 225 224 225 226 227 226 224 224 224 224 224 224 225 226 228 230 231 233 233 231 234 246 254 250 247 248 248 249 253 256 260 265 269 271 272 272 271 272 273 274 275
257 256 253 251 253 255 257 260 261 262 262 261 261 261 262 261 259 256 253 252 250 247 245 244 242 238 234 231 229 227 226 225 224 223 223 223 222 223 222 222 222 223 222 224 224 223 224 225 225 224 223 222 222 222 223 223 223 225 228 230 233 235 235 235 236 241 251 253 248 248 251 253 257 261 264 268 272 274 275 275 275 275 275 276 276
266 261 258 257 258 259 261 263 264 264 264 265 265 267 267 266 263 259 256 254 251 249 248 245 243 239 235 232 229 227 226 225 224 223 223 223 223 222 222 222 223 223 224 225 224 223 223 223 224 223 221 220 220 219 220 221 223 226 229 232 233 237 238 237 237 240 248 254 252 250 253 256 260 263 265 267 269 270 272 274 275 275 276 277 277
275 268 265 264 264 265 266 267 268 268 269 270 270 272 271 270 267 262 258 255 252 251 249 246 243 240 236 234 231 228 227 225 223 223 223 223 223 223 223 223 224 225 225 226 225 223 223 224 223 221 218 218 218 219 219 221 223 226 230 232 234 237 239 238 239 240 244 251 253 254 256 258 261 263 263 265 268 269 270 271 273 275 277 278 279
296 285 278 273 270 269 269 270 271 271 273 274 273 274 273 271 270 266 261 257 255 252 251 248 245 242 239 237 233 231 228 226 224 223 223 223 223 223 224 224 225 226 227 227 226 226 225 225 224 220 218 219 219 219 220 222 224 227 229 232 235 237 238 238 239 240 243 249 253 255 255 257 261 263 263 265 267 269 271 273 274 274 276 278 279
310 297 286 279 275 273 273 273 274 275 275 276 275 275 274 273 271 268 263 259 257 254 252 250 247 244 241 238 234 232 229 226 224 223 222 222 222 223 224 225 226 227 228 228 227 227 226 226 224 221 220 221 221 221 222 224 227 229 231 234 235 236 237 238 239 239 242 247 251 252 253 255 257 261 263 266 268 267 267 271 274 274 275 276 278
303 293 284 280 277 277 280 281 284 287 285 285 284 279 275 272 269 266 262 259 257 255 253 251 247 243 240 237 234 231 228 225 224 222 221 222 222 223 224 225 226 227 228 229 228 228 227 227 225 224 224 224 224 225 227 228 228 229 233 236 236 236 237 238 238 239 241 245 249 250 253 255 256 259 262 262 261 262 262 263 268 273 275 276 276
300 291 284 283 283 285 293 298 305 310 310 309 302 289 281 275 269 266 262 258 257 256 253 251 247 242 239 236 233 231 229 226 225 224 223 223 223 224 225 225 227 228 228 229 228 228 228 227 227 227 227 227 227 229 233 234 232 233 235 236 235 235 236 237 237 237 239 243 248 251 252 254 255 257 260 256 254 259 262 262 265 269 274 276 275
299 295 291 293 300 304 313 322 330 336 337 334 326 312 301 291 281 274 267 263 260 257 253 250 246 243 240 237 234 232 230 229 229 228 228 227 227 227 226 227 228 229 229 228 228 228 229 229 230 230 229 229 230 233 234 234 236 239 241 241 239 236 233 232 233 234 236 239 244 247 248 252 252 252 255 257 257 259 260 260 263 268 271 273 274
300 303 312 330 332 330 337 343 347 350 349 342 335 327 318 308 299 289 281 273 267 262 257 251 246 243 240 237 236 234 233 233 232 232 233 233 233 231 230 230 229 229 230 229 228 229 229 230 231 231 230 230 232 234 234 236 239 243 245 245 244 241 237 233 232 232 234 238 243 245 243 248 253 251 252 257 258 256 255 256 259 263 264 264 271
323 339 346 340 335 339 344 344 343 340 335 330 326 322 316 311 305 298 290 283 276 269 262 255 250 246 243 241 239 238 237 238 238 239 238 236 236 237 236 234 232 232 232 231 231 230 229 230 231 231 231 232 234 235 236 239 243 245 246 246 245 245 243 241 240 238 236 237 242 244 242 246 252 253 251 254 255 254 253 254 254 255 257 255 258
356 341 331 324 337 346 337 331 328 322 319 316 313 311 309 308 307 303 298 292 286 281 273 266 260 255 250 248 246 244 244 245 245 245 242 237 236 240 241 239 238 237 236 234 233 231 230 230 230 231 233 233 235 236 238 241 243 244 246 245 244 244 244 244 244 245 245 243 242 245 246 247 250 253 253 253 254 253 249 250 252 251 251 252 253
346 316 217 335 345 342 334 331 328 321 317 312 308 308 308 308 308 305 301 297 293 289 284 279 273 267 262 257 254 252 251 252 251 248 243 242 244 248 248 245 242 242 241 239 236 235 233 233 232 234 235 235 236 238 240 242 244 243 242 241 241 242 244 243 242 244 247 246 245 248 251 250 250 255 257 256 254 251 247 249 251 250 250 254 258
343 316 318 334 338 339 339 338 334 327 320 313 310 310 310 311 309 305 302 300 295 290 286 281 276 271 266 261 257 256 257 259 259 255 251 253 256 258 259 252 243 240 241 240 238 236 236 236 236 237 238 239 239 241 243 244 244 242 240 239 240 242 243 244 244 245 247 248 248 251 253 253 254 256 259 257 255 254 253 254 256 255 256 259 261
345 327 330 340 341 344 342 335 328 320 313 308 308 310 311 311 310 307 304 300 296 291 286 281 277 272 268 264 262 263 265 266 265 263 263 263 260 261 265 263 250 240 239 239 239 239 238 237 238 239 240 242 243 245 247 246 243 240 239 241 243 244 244 246 248 249 251 252 252 252 252 253 254 256 258 258 256 256 254 253 253 252 252 255 256
13 1 355 354 347 342 335 324 317 310 303 303 304 307 309 308 307 306 303 299 297 293 289 284 279 275 273 271 270 270 270 270 267 265 266 267 264 264 273 284 280 258 248 246 246 246 246 245 244 244 244 245 247 248 246 244 242 242 242 244 246 247 249 252 254 253 253 254 255 254 254 253 252 253 255 256 256 254 247 241 241 241 241 243 246
24 14 5 352 337 329 322 314 308 300 299 303 304 304 305 304 302 301 298 295 294 292 289 284 280 277 275 272 272 271 270 268 265 263 266 270 271 273 280 288 290 284 272 262 255 252 251 250 249 247 245 246 248 247 243 239 241 244 244 246 247 248 251 254 255 256 255 255 257 259 259 258 257 256 256 257 258 253 240 233 237 236 233 232 237
8 358 345 333 326 322 322 320 315 307 305 305 305 302 300 299 295 291 289 287 285 284 282 278 275 274 271 269 267 267 266 265 263 264 269 276 279 279 281 282 283 283 281 274 265 257 253 251 249 247 246 247 247 246 244 244 245 246 246 245 244 245 250 252 252 253 254 253 255 257 258 260 261 261 260 260 261 258 250 245 241 234 231 234 235
355 344 332 329 329 330 332 332 328 325 318 311 307 302 297 294 290 287 286 281 276 274 271 268 266 265 266 267 268 270 271 271 271 274 277 280 282 281 280 279 278 278 277 274 266 258 251 247 245 244 245 247 247 246 248 249 248 246 244 242 242 246 251 252 251 252 252 252 253 255 257 259 260 260 262 262 262 261 261 260 253 240 235 238 236
339 333 327 328 329 329 330 328 325 322 316 311 308 303 299 295 289 286 283 277 272 267 263 261 261 262 266 269 271 275 278 279 280 282 283 283 282 279 277 276 275 275 273 270 264 258 252 247 246 246 247 250 251 253 255 256 255 252 249 246 248 251 252 251 250 250 250 250 252 252 253 254 255 256 258 260 261 262 262 263 261 253 244 239 238
330 328 325 323 321 321 320 318 316 313 309 307 305 301 299 295 288 284 280 274 270 266 263 264 267 268 272 274 275 278 281 282 284 284 284 283 282 279 276 274 272 269 267 262 258 256 254 251 251 252 252 253 256 259 260 260 259 259 258 256 255 256 255 253 252 250 247 246 247 247 247 247 248 249 251 253 256 258 260 261 262 260 254 248 243
328 327 324 319 317 317 317 315 315 315 311 308 306 302 300 295 289 285 280 274 272 270 270 273 275 277 278 279 281 283 284 285 286 286 286 285 283 279 276 273 270 268 265 263 259 256 254 251 252 254 255 255 256 257 259 260 261 262 263 263 263 264 264 262 259 254 249 246 245 245 245 244 243 245 247 249 251 254 257 260 262 262 261 258 252
328 326 322 316 312 309 310 312 315 319 319 315 312 308 304 299 294 290 284 281 280 279 280 282 284 286 288 289 289 291 293 294 293 290 290 290 287 282 278 275 272 269 268 269 268 265 259 252 249 252 255 257 257 258 260 263 264 264 266 268 271 275 278 279 277 273 268 262 257 255 253 252 250 249 250 252 255 257 257 259 262 263 263 263 261
327 325 320 315 310 307 307 309 310 316 324 325 324 322 316 309 304 301 297 294 290 286 288 290 290 290 292 294 297 301 304 304 301 298 298 295 291 286 282 279 276 273 272 273 272 273 272 266 260 258 260 261 263 265 267 268 270 270 272 274 277 280 282 281 279 276 271 267 264 262 260 260 259 259 261 264 264 263 259 256 258 260 261 262 262
327 326 322 319 317 315 317 320 317 316 322 325 326 327 323 316 311 306 301 298 294 292 292 293 294 293 293 295 298 303 306 307 305 305 303 299 294 291 287 284 279 274 273 272 270 269 270 270 268 267 267 267 268 270 273 275 277 278 277 277 278 279 278 277 274 269 266 265 264 263 263 264 263 263 263 264 263 261 259 255 253 253 254 255 256
329 330 328 325 326 325 325 327 323 316 315 314 313 313 312 309 306 303 301 300 299 297 296 295 294 294 294 295 297 300 304 306 306 309 310 306 302 299 295 289 283 276 272 271 270 269 269 269 269 269 269 269 269 270 272 274 276 278 278 277 277 277 277 277 275 270 267 265 265 265 266 266 266 264 261 259 257 257 257 255 253 251 250 249 248
338 337 333 329 328 327 325 323 319 315 311 308 310 310 307 304 299 297 299 300 298 296 296 294 293 292 291 293 293 293 295 299 303 308 311 308 303 298 292 286 282 277 274 274 275 274 273 271 270 269 269 269 269 270 271 272 273 275 276 276 277 277 277 277 274 271 270 269 267 267 267 266 265 264 261 259 257 256 255 254 252 251 250 247 244
345 343 339 335 331 327 324 320 318 316 313 312 312 311 310 309 305 301 302 302 299 297 294 291 291 291 288 286 283 279 282 292 303 307 305 301 296 290 285 282 280 278 278 279 278 273 269 267 266 266 267 267 268 268 269 270 270 271 272 274 275 276 276 274 271 270 271 270 267 266 266 266 265 264 262 259 258 258 256 254 253 252 250 244 243
344 342 340 338 335 331 327 323 321 320 320 320 319 316 315 315 312 304 302 300 297 293 286 284 287 289 285 285 286 282 283 295 304 301 295 294 294 294 292 289 285 282 282 280 273 265 261 260 259 260 262 263 262 263 265 266 267 268 269 271 272 273 273 273 272 273 272 270 268 266 265 264 264 263 260 258 258 258 257 255 255 254 251 246 244
336 335 333 333 331 329 326 325 323 324 326 329 329 326 323 322 321 315 308 304 301 297 288 286 289 291 289 294 303 303 301 305 302 293 292 296 299 304 310 305 295 288 285 280 270 258 250 249 251 253 255 256 256 259 261 263 264 266 268 270 271 272 273 273 274 275 274 272 270 268 266 263 262 261 261 260 260 260 257 255 254 252 252 251 251
329 328 328 328 327 326 325 325 325 325 327 330 332 331 328 326 325 323 321 314 305 302 299 296 296 299 301 306 314 315 312 310 303 297 297 295 291 293 298 299 297 293 287 284 283 277 266 265 269 270 269 267 267 269 268 268 269 270 272 275 277 276 277 279 281 282 283 283 282 278 274 270 266 264 262 260 260 259 257 254 252 250 250 251 252
326 326 327 327 326 326 327 327 326 325 326 326 326 326 326 323 319 317 317 317 313 309 306 303 303 308 311 314 316 315 312 311 308 304 303 297 292 293 298 298 299 301 297 298 313 322 321 319 317 315 311 305 301 299 294 291 292 293 293 296 297 293 292 294 297 299 299 301 301 300 299 296 292 288 280 272 267 262 257 254 251 249 249 249 250
326 326 328 327 326 325 326 326 325 323 323 323 321 320 319 317 313 309 311 314 316 317 316 315 313 315 318 319 320 319 316 314 315 313 310 305 303 303 300 288 284 295 307 321 328 325 321 320 316 311 308 305 301 299 297 294 295 297 298 299 299 299 299 298 299 302 305 305 305 305 304 303 303 303 300 296 292 287 278 267 258 251 247 246 246
327 327 328 328 326 324 323 322 321 320 319 318 317 316 316 316 315 309 303 302 304 305 309 314 317 318 319 320 321 321 319 316 317 317 311 307 312 320 315 306 304 306 311 321 329 327 323 320 315 310 308 304 301 301 301 300 301 302 302 302 302 302 302 302 301 302 303 302 302 304 306 307 307 305 301 297 295 294 293 291 288 281 269 258 250
327 326 327 328 327 323 320 320 319 317 316 315 314 313 313 313 313 310 305 299 294 294 299 309 316 319 321 322 322 322 320 318 316 315 310 309 317 327 327 323 322 319 316 319 325 328 326 320 314 308 304 300 299 300 301 302 304 304 303 304 303 303 303 304 304 303 299 298 302 306 308 309 309 309 310 306 300 294 291 292 296 300 302 300 284
324 322 323 326 326 324 321 320 319 317 316 316 315 313 313 312 311 309 306 302 299 297 298 305 312 316 319 323 326 324 322 321 318 315 315 315 320 326 326 322 317 314 313 316 320 321 321 319 313 307 302 300 302 304 304 303 303 302 301 301 301 301 302 301 299 297 295 298 303 307 310 312 310 308 308 310 311 313 313 312 312 310 310 319 326
321 318 319 323 325 324 322 320 321 320 318 317 316 314 313 313 312 310 307 304 302 301 301 304 307 308 310 317 324 325 323 323 323 322 325 328 329 329 327 320 312 307 306 308 309 309 310 312 313 311 309 309 308 306 303 302 300 298 297 298 298 299 299 297 295 295 295 297 300 303 307 312 313 310 306 305 308 313 316 320 326 326 322 324 336
318 315 315 319 322 323 322 321 321 321 319 319 320 317 314 313 312 310 309 307 305 303 303 303 304 305 308 315 321 323 321 320 321 324 328 331 331 331 328 320 311 303 300 299 299 299 301 304 307 308 309 308 307 304 302 301 299 298 298 298 296 296 296 295 294 293 291 290 292 298 304 309 311 309 305 303 306 310 313 315 318 321 324 326 327
315 313 315 320 322 323 324 323 322 323 322 320 320 318 315 313 313 311 310 307 304 303 303 302 302 306 311 315 318 319 316 313 314 319 322 322 322 323 322 318 310 303 300 300 299 299 301 302 302 303 303 303 304 304 303 302 301 299 297 295 294 294 295 294 293 291 289 288 289 293 299 305 308 307 303 300 302 304 307 313 318 321 325 326 325
313 314 318 322 323 324 324 324 324 324 323 319 318 318 316 314 313 311 308 305 303 303 304 303 304 310 315 316 316 315 312 310 312 314 314 314 315 315 315 315 312 308 306 306 304 302 301 298 294 293 296 298 300 302 303 303 303 301 296 293 292 291 290 289 289 291 294 296 298 299 302 305 305 302 297 294 294 296 298 306 316 325 333 336 336
313 318 321 324 324 323 322 323 323 323 322 319 318 317 315 313 312 310 308 307 307 307 307 307 310 315 318 319 318 315 311 310 311 312 312 312 312 312 312 311 309 307 307 305 301 296 290 285 284 286 290 293 295 297 298 299 299 298 296 293 291 289 288 288 289 291 295 297 298 297 298 298 298 294 287 281 280 288 295 303 313 323 332 338 339
315 321 323 323 323 321 319 320 321 321 319 318 317 315 313 312 312 312 311 312 312 312 311 312 315 319 321 322 321 318 314 312 314 316 317 316 315 314 313 308 304 305 304 300 296 292 285 283 285 288 290 294 295 294 293 294 293 293 294 294 292 292 292 291 290 292 293 294 293 291 289 289 289 283 278 275 278 283 287 293 306 318 326 330 332
319 322 321 321 321 320 318 318 318 317 318 317 314 314 315 316 316 318 318 317 317 317 317 316 319 321 323 323 322 319 316 316 320 321 321 319 317 317 316 310 302 301 297 292 290 287 286 286 288 288 289 291 291 289 288 288 288 289 291 291 290 291 291 292 292 292 289 286 285 286 287 287 284 277 273 274 278 279 282 289 300 310 317 322 325
317 318 318 319 318 317 316 317 317 316 317 316 314 315 318 319 320 321 321 319 319 320 320 320 322 323 323 324 324 322 319 319 323 324 323 322 318 313 309 302 295 289 283 280 279 280 282 285 286 288 290 291 292 292 291 290 289 288 285 283 283 287 292 294 292 287 283 283 284 286 287 285 280 275 275 276 277 276 278 287 297 303 307 310 314
313 314 315 317 316 314 315 317 318 317 316 314 314 316 318 319 319 319 319 319 319 318 318 320 323 324 326 327 327 325 323 321 321 321 321 319 314 306 297 291 287 282 276 272 273 276 281 286 290 295 300 301 301 301 300 297 296 293 285 278 277 281 287 293 293 286 281 282 284 285 286 285 281 278 276 275 275 276 281 289 295 297 299 302 304
310 313 315 315 314 312 313 315 316 315 313 313 314 315 316 316 317 316 316 317 317 316 316 318 320 322 325 326 326 325 324 321 318 317 316 313 306 295 284 280 279 274 270 270 272 276 283 293 301 306 308 306 305 307 308 308 309 305 293 282 279 279 281 286 291 291 288 285 282 281 282 284 283 279 273 268 267 273 282 289 291 293 296 297 295
310 315 317 317 314 311 311 314 313 310 310 312 313 313 313 312 312 313 314 315 316 315 314 315 317 319 320 321 322 322 320 317 313 310 309 303 293 279 273 276 279 274 270 271 274 281 294 305 309 309 306 303 304 312 316 316 315 314 306 295 291 291 289 287 288 291 292 290 285 282 284 287 286 276 267 265 268 275 281 286 289 293 296 294 288
313 316 317 316 312 309 310 310 308 306 308 310 310 309 310 310 309 310 312 313 314 315 314 313 315 318 318 318 319 319 318 315 311 306 298 285 272 271 279 282 278 272 270 271 280 294 306 311 309 304 303 303 304 309 315 318 320 322 322 317 311 309 305 298 295 295 296 295 290 283 280 284 285 281 276 277 279 280 284 288 291 293 293 290 284
313 316 316 312 309 307 307 306 304 304 306 308 306 306 308 308 307 309 311 311 312 314 315 315 315 316 316 316 316 317 317 315 308 297 284 273 275 281 284 278 272 269 272 279 292 305 311 308 302 300 303 304 303 305 308 311 318 330 333 328 322 317 315 313 311 308 303 298 291 282 276 275 277 280 283 284 284 284 287 292 293 293 292 289 287
311 314 313 309 307 306 304 303 303 304 305 305 305 304 305 305 306 308 309 310 310 312 314 314 313 312 313 313 311 310 312 310 298 283 277 279 281 279 274 268 267 271 277 287 300 309 307 300 297 300 304 303 304 304 301 297 303 317 323 318 313 309 311 315 316 313 308 302 294 287 281 276 274 272 274 276 278 279 284 289 293 296 296 293 292